Location: Unspecified
(0.0000°N, 0.0000°E)
Time: 19:02:23
(UTC+00:00)

A-11 Canister half - Pass Details

Date: 27 November 2019
Orbit: 1515 x 1685 km, 47.2° (Epoch: 08 December)

Event Time Altitude Azimuth Distance (km) Brightness Sun altitude
Rises 12:40:48 0° 224° (SW) 4,693 11.9 65.2°
Reaches altitude 10° 12:43:49 10° 225° (SW) 3,726 11.6 64.8°
Maximum altitude 12:53:15 75° 309° (NW) 1,634 10.4 63.5°
Drops below altitude 10° 13:03:02 10° 34° (NNE) 3,850 10.9 62.0°
Sets 13:06:12 0° 36° (NE) 4,857 11.3 61.4°
